Location: Bouchavesnes-Bergen
(49.9859°N, 2.9203°E)
Time: 01:09:32
(UTC+00:00)

IDEFIX/ARIANE 42P - Pass Details

Date: 28 September 2022
Orbit: 784 x 803 km, 98.5° (Epoch: 05 December)

Event Time Altitude Azimuth Distance (km) Brightness Sun altitude
Rises 00:22:09 0° 31° (NNE) 3,328 6.6 -41.1°
Reaches altitude 10° 00:26:05 10° 60° (ENE) 2,390 5.4 -40.9°
Enters shadow 00:26:22 11° 63° (ENE) 2,348 5.4 -40.9°
